EW5773 Weather Reports


Display with metric or nautical units.
time (UTC)temp
F
wind
direction
speed
MPH
gust
MPH
rain 1hr
in
rain 24hr
in
rain mn
in
humidity
%
barometer
mb
20260509124521 74 68 9.0 17.0 0.00 0.00 0.00 53 1011.7
20260509123016 74 71 7.0 20.0 0.00 0.00 0.00 54 1011.9
20260509121523 74 46 7.0 12.0 0.00 0.00 0.00 54 1012.0
20260509120015 73 115 4.0 11.0 0.00 0.00 0.00 56 1012.2
20260509114523 73 85 6.0 15.0 0.00 0.00 0.00 55 1012.4
20260509113010 73 82 5.0 11.0 0.00 0.00 0.00 56 1012.5
20260509111511 72 66 4.0 10.0 0.00 0.00 0.00 57 1012.7
20260509110009 70 53 4.0 13.0 0.00 0.00 0.00 59 1012.8
20260509104507 70 44 4.0 9.0 0.00 0.00 0.00 59 1013.0
20260509103006 69 43 5.0 11.0 0.00 0.00 0.00 61 1013.0
20260509101508 69 51 5.0 13.0 0.00 0.00 0.00 61 1013.0
20260509100013 68 48 5.0 10.0 0.00 0.00 0.00 61 1013.1
20260509094511 68 61 3.0 6.0 0.00 0.00 0.00 64 1013.1
20260509093004 67 42 4.0 10.0 0.00 0.00 0.00 64 1013.3
20260509091503 66 85 4.0 10.0 0.00 0.00 0.00 66 1013.3
20260509090005 65 59 2.0 7.0 0.00 0.00 0.00 69 1013.4
20260509084511 63 38 4.0 9.0 0.00 0.00 0.00 71 1013.4
20260509083103 62 355 3.0 9.0 0.00 0.00 0.00 73 1013.4
20260509081521 61 46 2.0 7.0 0.00 0.00 0.00 74 1013.5
20260509080019 59 360 4.0 6.0 0.00 0.00 0.00 75 1013.8
20260509074519 59 24 4.0 7.0 0.00 0.00 0.00 75 1013.9
20260509073018 58 68 2.0 6.0 0.00 0.00 0.00 76 1014.0
20260509071516 57 38 5.0 10.0 0.00 0.00 0.00 78 1014.0
20260509070016 55 44 5.0 9.0 0.00 0.00 0.00 81 1014.1
20260509064512 54 47 3.0 7.0 0.00 0.00 0.00 84 1014.1
20260509063010 53 53 3.0 6.0 0.00 0.00 0.00 87 1014.0
20260509061511 51 355 1.0 6.0 0.00 0.00 0.00 89 1014.1
20260509060011 50 5 4.0 8.0 0.00 0.00 0.00 89 1013.9
20260509054510 49 344 3.0 8.0 0.00 0.00 0.00 89 1013.9
20260509053010 48 342 4.0 8.0 0.00 0.00 0.00 90 1013.7
20260509051505 48 340 3.0 6.0 0.00 0.00 0.00 89 1013.7
20260509050007 47 344 4.0 8.0 0.00 0.00 0.00 90 1013.7
20260509044506 47 355 3.0 6.0 0.00 0.00 0.00 89 1013.7
20260509043005 47 347 3.0 6.0 0.00 0.00 0.00 89 1013.6
20260509041505 47 350 3.0 6.0 0.00 0.00 0.00 89 1013.6
20260509040010 47 351 3.0 5.0 0.00 0.00 0.00 89 1013.6
20260509034519 47 346 3.0 5.0 0.00 0.00 0.00 89 1013.9
20260509033003 48 336 4.0 8.0 0.00 0.00 0.00 89 1013.7
20260509031505 48 348 3.0 6.0 0.00 0.00 0.00 89 1014.0
20260509030002 48 351 2.0 5.0 0.00 0.00 0.00 89 1014.0
20260509024604 48 355 2.0 4.0 0.00 0.00 0.00 88 1014.0
20260509023018 48 349 2.0 4.0 0.00 0.00 0.00 88 1014.0
20260509021522 48 350 3.0 5.0 0.00 0.00 0.00 88 1014.1
20260509020021 49 350 3.0 5.0 0.00 0.00 0.00 87 1014.0
20260509014517 49 350 3.0 5.0 0.00 0.00 0.00 87 1014.2
20260509013016 49 350 2.0 3.0 0.00 0.00 0.00 87 1014.4
20260509011516 49 349 1.0 3.0 0.00 0.00 0.00 86 1014.4
20260509010050 50 349 1.0 4.0 0.00 0.00 0.00 86 1014.5
20260509004511 50 347 2.0 5.0 0.00 0.00 0.00 86 1014.4
20260509003014 50 11 3.0 5.0 0.00 0.00 0.00 85 1014.3
20260509001511 50 26 3.0 4.0 0.00 0.00 0.00 84 1014.6
20260509000013 51 28 3.0 4.0 0.00 0.00 0.00 82 1014.6
20260508234511 51 29 2.0 4.0 0.00 0.00 0.00 81 1014.8
20260508233009 52 30 2.0 5.0 0.00 0.00 0.00 80 1014.9
20260508231509 52 31 2.0 4.0 0.00 0.00 0.00 80 1015.1
20260508230008 52 30 1.0 4.0 0.00 0.00 0.00 79 1014.9
20260508224512 53 30 2.0 4.0 0.00 0.00 0.00 78 1015.0
20260508223040 53 30 2.0 5.0 0.00 0.00 0.00 77 1014.8
20260508221510 54 29 2.0 4.0 0.00 0.00 0.00 76 1015.0
20260508220103 54 29 2.0 5.0 0.00 0.00 0.00 74 1014.9
20260508214531 55 28 2.0 4.0 0.00 0.00 0.00 73 1015.0
20260508213019 55 28 3.0 5.0 0.00 0.00 0.00 71 1014.8
20260508211516 56 27 2.0 5.0 0.00 0.00 0.00 70 1014.9
20260508210017 56 26 3.0 6.0 0.00 0.00 0.00 68 1015.0
20260508204517 57 24 2.0 6.0 0.00 0.00 0.00 66 1014.9
20260508203018 57 15 3.0 6.0 0.00 0.00 0.00 64 1014.9
20260508201550 58 21 2.0 5.0 0.00 0.00 0.00 64 1014.8
20260508200019 58 21 3.0 6.0 0.00 0.00 0.00 64 1014.5
20260508194509 59 19 3.0 6.0 0.00 0.00 0.00 63 1014.4
20260508193008 60 25 3.0 6.0 0.00 0.00 0.00 62 1014.3
20260508191508 62 24 2.0 4.0 0.00 0.00 0.00 60 1014.2
20260508190039 63 25 1.0 5.0 0.00 0.00 0.00 56 1014.1
20260508184516 64 24 2.0 5.0 0.00 0.00 0.00 54 1014.0
20260508183012 65 360 2.0 5.0 0.00 0.00 0.00 53 1013.9
20260508181504 65 360 2.0 8.0 0.00 0.00 0.00 47 1013.9
20260508180005 66 39 4.0 9.0 0.00 0.00 0.00 47 1013.7
20260508174614 67 54 3.0 9.0 0.00 0.00 0.00 45 1013.7
20260508173105 68 36 3.0 9.0 0.00 0.00 0.00 45 1013.6
20260508171520 68 48 6.0 10.0 0.00 0.00 0.00 45 1013.6
20260508170025 68 355 3.0 9.0 0.00 0.00 0.00 46 1013.5
20260508164522 68 34 5.0 10.0 0.00 0.00 0.00 45 1013.4
20260508163017 70 355 5.0 9.0 0.00 0.00 0.00 42 1013.5
20260508161514 70 88 4.0 8.0 0.00 0.00 0.00 40 1013.5
20260508160011 70 52 1.0 5.0 0.00 0.00 0.00 40 1013.6
20260508154512 70 83 4.0 8.0 0.00 0.00 0.00 40 1013.7
20260508153017 68 82 4.0 7.0 0.00 0.00 0.00 43 1013.7
20260508151507 68 47 5.0 10.0 0.00 0.00 0.00 42 1013.8
20260508150008 70 44 4.0 11.0 0.00 0.00 0.00 43 1013.7
20260508144508 70 42 4.0 9.0 0.00 0.00 0.00 43 1013.6
20260508143004 69 78 5.0 12.0 0.00 0.00 0.00 42 1013.6
20260508141510 68 43 4.0 12.0 0.00 0.00 0.00 42 1013.9
20260508140103 69 5 5.0 12.0 0.00 0.00 0.00 43 1013.9
20260508134518 70 109 3.0 11.0 0.00 0.00 0.00 39 1013.9
20260508133015 67 26 1.0 9.0 0.00 0.00 0.00 43 1013.9
20260508131514 67 40 6.0 13.0 0.00 0.00 0.00 45 1014.1
20260508130028 67 43 5.0 12.0 0.00 0.00 0.00 44 1014.1